Weather History for Montrose, CO

Change the Weather History Date:

Saturday, July 14, 2012

  Actual Average Record
Temperature  
Mean Temperature 74 °F 74 °F  
Max Temperature 87 °F 90 °F 100 °F (2002)
Min Temperature 60 °F 58 °F 50 °F (1997)
Degree Days  
Heating Degree Days 0 0  
Month to date heating degree days 0 0  
Since 1 June heating degree days 6 39  
Since 1 July heating degree days 0 0  
Cooling Degree Days 9 9  
Month to date cooling degree days 151 118  
Year to date cooling degree days 443 270  
Since 1 June cooling degree days 420 253  
Growing Degree Days 24 (Base 50)    
Moisture  
Dew Point 54 °F    
Average Humidity 59    
Maximum Humidity 93    
Minimum Humidity 25    
Precipitation  
Precipitation 0.34 in 0.02 in 0.34 in (2012)
Month to date precipitation 1.14 0.35  
Year to date precipitation 2.70 5.42  
Sea Level Pressure  
Sea Level Pressure 30.03 in    
Wind  
Wind Speed 6 mph (SE)    
Max Wind Speed 25 mph    
Max Gust Speed 35 mph    
Visibility 9 miles    
Events Rain    
T = Trace of Precipitation, MM = Missing Value Source: NWS Daily Summary

Daily Weather History Graph

Daily Weather History Graph

Search for Another Location

Airport:

Trip Planner

Search our weather history database for the weather conditions in past years. The results will help you decide how hot, cold, wet, or windy it might be!

Date:

Astronomy

Jul. 14, 2012 Rise Set
Actual Time 5:59 AM MDT 8:35 PM MDT
Civil Twilight 5:28 AM MDT 9:06 PM MDT
Nautical Twilight 4:49 AM MDT 9:44 PM MDT
Astronomical Twilight 4:06 AM MDT 10:27 PM MDT
Moon 2:15 AM MDT (7/14) 5:02 PM MDT (7/14)
Length of Visible Light 15h 37m
Length of Day
14h 36m
Waning Crescent, 18% of the Moon is Illuminated
Jul 14
Waning Crescent
Jul 18
New
Jul 26
First Quarter
Aug 1
Full
Aug 9
Last Quarter

Hourly Weather History & Observations

Time (MDT) Temp. Heat Index Dew Point Humidity Pressure Visibility Wind Dir Wind Speed Gust Speed Precip Events Conditions
12:53 AM 71.1 °F - 48.9 °F 45% 29.94 in 10.0 mi Calm Calm - N/A   Partly Cloudy
1:53 AM 69.1 °F - 48.9 °F 49% 29.94 in 10.0 mi Calm Calm - N/A   Clear
4:53 AM 66.9 °F - 50.0 °F 54% 29.99 in 10.0 mi ESE 6.9 mph - N/A   Partly Cloudy
5:53 AM 66.0 °F - 50.0 °F 56% 30.00 in 10.0 mi South 5.8 mph - N/A   Mostly Cloudy
6:53 AM 64.9 °F - 50.0 °F 58% 30.01 in 10.0 mi ESE 8.1 mph - N/A   Clear
7:53 AM 68.0 °F - 48.9 °F 50% 30.02 in 10.0 mi SSE 8.1 mph - N/A   Clear
8:53 AM 73.9 °F - 48.0 °F 40% 30.01 in 10.0 mi South 5.8 mph - N/A   Clear
9:53 AM 78.1 °F - 46.0 °F 32% 29.99 in 10.0 mi West 4.6 mph - N/A   Clear
10:53 AM 81.0 °F - 48.0 °F 31% 29.98 in 10.0 mi NNE 4.6 mph - N/A   Clear
11:53 AM 82.0 °F - 48.0 °F 30% 29.96 in 10.0 mi Variable 4.6 mph - N/A   Clear
12:53 PM 86.0 °F - 46.9 °F 26% 29.92 in 10.0 mi Variable 5.8 mph - N/A   Partly Cloudy
1:53 PM 75.9 °F - 57.0 °F 52% 29.95 in 10.0 mi ESE 12.7 mph 23.0 mph 0.02 in Rain Light Rain
2:53 PM 80.1 °F 80.1 °F 55.0 °F 42% 29.94 in 10.0 mi Variable 3.5 mph 24.2 mph 0.00 in   Clear
3:53 PM 77.0 °F - 54.0 °F 45% 29.95 in 10.0 mi East 21.9 mph 27.6 mph N/A   Partly Cloudy
4:44 PM 71.6 °F - 55.4 °F 57% 30.24 in 2.5 mi ESE 13.8 mph 26.5 mph 0.07 in Rain Light Rain
4:53 PM 70.0 °F - 55.9 °F 61% 30.01 in 10.0 mi ENE 9.2 mph 23.0 mph 0.07 in   Mostly Cloudy
5:53 PM 66.9 °F - 60.1 °F 79% 30.04 in 10.0 mi SSW 8.1 mph - 0.09 in Rain Light Rain
6:53 PM 68.0 °F - 57.9 °F 70% 30.03 in 10.0 mi NE 5.8 mph - 0.05 in   Scattered Clouds
7:40 PM 64.4 °F - 59.0 °F 83% 30.27 in 1.8 mi NNE 5.8 mph - 0.08 in Rain Heavy Rain
7:48 PM 64.4 °F - 60.8 °F 88% 30.29 in 3.0 mi Variable 3.5 mph - 0.10 in Rain Light Rain
7:53 PM 64.9 °F - 60.1 °F 84% 30.09 in 10.0 mi South 6.9 mph - 0.10 in Rain Light Rain
8:53 PM 64.0 °F - 60.1 °F 87% 30.03 in 10.0 mi NW 3.5 mph - 0.01 in   Scattered Clouds
9:53 PM 64.0 °F - 60.1 °F 87% 30.03 in 10.0 mi Calm Calm - N/A   Mostly Cloudy
10:53 PM 63.0 °F - 59.0 °F 87% 30.02 in 10.0 mi SW 3.5 mph - N/A   Clear
11:53 PM 62.1 °F - 60.1 °F 93% 30.00 in 10.0 mi Calm Calm - N/A   Clear